[Date Prev][Date Next][Thread Prev][Thread Next] - [Date Index][Thread Index][Author Index]

2 Line ISS Keps 12-30



ISS
1 25544U 98067A   05364.00723160  .00023308  00000-0  16676-3 0   500
2 25544 051.6446 337.2396 0010935 095.6575 011.0998 15.73549098406500
----
Via the sarex mailing list at AMSAT.ORG courtesy of AMSAT-NA.
To unsubscribe, send "unsubscribe sarex" to Majordomo@amsat.org



AMSAT Top AMSAT Home